Location: Pordenone
(45.9640°N, 12.6580°E)
Time: 02:53:40
(UTC+02:00)

ISS - Pass Details

Date: 16 May 2021
Orbit: 417 x 422 km, 51.6° (Epoch: 14 June)

Event Time Altitude Azimuth Distance (km) Brightness Sun altitude
Rises 22:50:23 0° 255° (WSW) 2,358 0.3 -17.9°
Reaches altitude 10° 22:52:30 10° 260° (W) 1,498 -0.7 -18.1°
Maximum altitude 22:55:48 54° 339° (NNW) 519 -3.0 -18.4°
Drops below altitude 10° 22:59:08 10° 58° (ENE) 1,506 -0.9 -18.7°
Sets 23:01:16 0° 63° (ENE) 2,373 0.0 -18.9°
